Weather Roundup
Issued by NWS

Home | Current Version | Previous Version | Graphics & Text | Print | Product List | Glossary Off
Versions: 1 2 3 4 5 6 7 8 9 10 11 12 13 14 15 16 17 18 19 20 21 22 23 24 25 26 27 28 29 30 31 32 33 34 35 36 37 38 39 40 41 42 43 44 45 46 47 48 49 50

000
NZUS93 KARX 160110
HRRWXR

CURRENT HOURLY OBSERVATIONS ACROSS
MUCH OF THE UPPER MISSISSIPPI VALLEY
NATIONAL WEATHER SERVICE LA CROSSE WI
800 PM CDT MON SEP 15 2014


...SOUTHEAST MINNESOTA...


CITY           SKY/WX    TMP DP  RH WIND       PRES   REMARKS
ROCHESTER      PTCLDY    48  41  76 NW7       30.21S
ROCHESTER/MAYO FAIR      54  40  59 W3        30.20S
WINONA         CLEAR     52  46  82 CALM      30.20R
AUSTIN         PTCLDY    52  43  71 CALM      30.21R
ALBERT LEA     CLEAR     50  45  81 CALM      30.22R
DODGE CENTER   CLEAR     52  43  71 CALM      30.21S
PRESTON        PTCLDY    47  46  93 NW3       30.21R
OWATONNA       CLEAR     46  43  87 CALM      30.22R
FARIBAULT      CLEAR     48  43  81 CALM      30.21S
$$

...ELSEWHERE IN MINNESOTA...


CITY           SKY/WX    TMP DP  RH WIND       PRES   REMARKS
MINNEAPOLIS    CLEAR     54  38  54 W5        30.20S
INTNL FALLS    CLEAR     41  38  89 SW3       30.09S
DULUTH         PTCLDY    48  37  65 W7        30.15S
RED WING       CLEAR     48  45  87 N5        30.19R
REDWOOD FALLS  CLEAR     53  38  56 NW6       30.21S
MANKATO        CLEAR     55  37  50 CALM      30.21S
WORTHINGTON    CLEAR     52  43  71 CALM      30.24R
FAIRMONT       CLEAR     52  39  62 N3        30.22S
$$

...SOUTHWEST WISCONSIN...


CITY           SKY/WX    TMP DP  RH WIND       PRES   REMARKS
LA CROSSE      CLEAR     52  44  74 CALM      30.18R
PRAIRIE DU CHI CLEAR     49  46  90 CALM      30.19R
BOSCOBEL       CLEAR     49  47  93 CALM      30.19R
LONE ROCK      CLEAR     54  47  77 CALM      30.18R
PLATTEVILLE    CLEAR     51  45  82 CALM      30.19R
FORT MC COY    CLEAR     47  45  94 CALM      30.19R
CAMP DOUGLAS   PTCLDY    46  46 100 W5        30.16R
VIROQUA        FAIR      49  45  84 CALM      30.19R
WIS DELLS      CLEAR     49  46  88 CALM      30.16R
$$

...ELSEWHERE IN WISCONSIN...


CITY           SKY/WX    TMP DP  RH WIND       PRES   REMARKS
MILWAUKEE      PTCLDY    51  48  89 NW3       30.15R
MADISON        CLEAR     48  46  93 W3        30.16R
GREEN BAY      CLEAR     50  48  93 SW3       30.12R
EAU CLAIRE     CLEAR     51  39  63 NW5       30.18R
BLACK RVR FLS  FAIR      45  44  99 CALM      30.17R
MEDFORD        CLEAR     44  39  83 W5        30.16S
WAUSAU         CLEAR     50  40  68 W7        30.14R
WIS RAPIDS     CLEAR     49  42  77 NW5       30.17R
MARSHFIELD     CLEAR     46  40  79 NW7       30.16R
RICE LAKE      CLEAR     49  38  66 CALM      30.19S
$$

...NORTHEAST IOWA...


CITY           SKY/WX    TMP DP  RH WIND       PRES   REMARKS
WATERLOO       PTCLDY    53  44  71 W3        30.20R
DUBUQUE        CLEAR     47  45  93 NW5       30.19R
DECORAH        PTCLDY    52  45  76 CALM      30.19R
MASON CITY     PTCLDY    49  43  80 NW3       30.23R
CHARLES CITY   CLEAR     50  46  87 NW3       30.22R
OELWEIN        CLOUDY    54  48  82 NW3       30.21R
$$

...ELSEWHERE IN IOWA...


CITY           SKY/WX    TMP DP  RH WIND       PRES   REMARKS
DES MOINES     PTCLDY    58  46  64 N6        30.22R
IOWA CITY      CLEAR     56  48  74 N8        30.20R
FORT DODGE     CLEAR     52  43  71 CALM      30.23S
MARSHALLTOWN   CLEAR     51  46  83 N6        30.21R
CEDAR RAPIDS   CLEAR     52  47  83 N8        30.19R
$$

...NORTHERN ILLINOIS...


CITY           SKY/WX    TMP DP  RH WIND       PRES   REMARKS
CHICAGO-OHARE  CLOUDY    56  50  80 N12       30.13R
DUPAGE         CLOUDY    56  52  86 N9        30.13R
CHICAGO-MIDWAY CLOUDY    60  54  80 N7        30.12R
MOLINE         CLEAR     55  48  77 N5        30.18R
ROCKFORD       MOCLDY    53  48  83 N6        30.18R
STERLING       CLEAR     52  46  82 N3        30.17R
PEORIA         CLOUDY    59  55  87 NE5       30.14R
$$

NOTE: "FAIR" INDICATES FEW OR NO CLOUDS BELOW 12,000 FEET WITH NO
SIGNIFICANT WEATHER AND/OR OBSTRUCTIONS TO VISIBILITY. WIND
SPEEDS ARE IN MILES-PER-HOUR.



USA.gov is the U.S. government's official web portal to all federal, state and local government web resources and services.